Location: Poughquag
(41.6090°N, 73.6820°W)
Time: 12:50:40
(UTC-04:00)

Transit 2A - Pass Details

Date: 03 June 2020
Orbit: 592 x 967 km, 66.7° (Epoch: 06 July)

Event Time Altitude Azimuth Distance (km) Brightness Sun altitude
Rises 21:42:39 0° 332° (NNW) 3,555 11.1 -12.2°
Reaches altitude 10° 21:45:11 10° 336° (NNW) 2,646 10.0 -12.6°
Maximum altitude 21:51:22 61° 56° (NE) 1,085 6.7 -13.4°
Enters shadow 21:55:58 19° 132° (SE) 2,108 7.6 -13.9°
Drops below altitude 10° 21:57:40 10° 137° (SE) 2,695 - -14.1°
Sets 22:00:16 0° 140° (SE) 3,625 - -14.5°
